P/2011 VJ5 ( Lemmon )

Japanese version
Home page
Updated on February 10, 2013

---------------------------------------------------------------------

* Profile

Discovery Date November 3, 2011
Magnitude 20.2 mag
Discoverer R. Kowalski (Mount Lemmon Survey)

* Pictures

* Orbital Elements

Epoch 2011 Dec. 25.0 TT = JDT 2455920.5
T 2011 Dec. 8.70196 TT                                  MPC
q   1.5063684            (2000.0)            P               Q
n   0.15708778     Peri.  315.12516     -0.57562323     -0.81762650
a   3.4017922      Node   169.99750     +0.76834084     -0.54584412
e   0.5571839      Incl.    3.97258     +0.27983969     -0.18314228
P   6.27
From 58 observations 2011 Nov. 3-2012 Mar. 30, mean residual 0".8.

* Magnitudes Graph

        m1 = 17.0 + 5 log d + 10.0 log r

---------------------------------------------------------------------

The orbital elements are published on M.P.E.C. 2012-G18.
The magnitudes graphs are made with Comet for Windows.

---------------------------------------------------------------------

Copyright(C) Seiichi Yoshida (comet@aerith.net). All rights reserved.